AZERSPACE 2 (43632 NORAD) Tracking and Keplerian Element Data

This shows tracking and keplerian element data for the satellite.

Feedback or suggestion? Click here.




ElementValue
Catalog43632
NameAZERSPACE 2
Epoch Orbit43
Epoch Day297.33295834
Epoch Year2018
RAAN167.0105
Inclination1.4781
Eccentricity0.3078456
Argument of Perigee183.4777
Mean Anonmoly63.7268
Mean Motion1.31054932
Decay Rate-9.9E-07
L11 43632U 18074A 18297.33295834 -.00000099 00000-0 00000+0 0 9990
L22 43632 1.4781 167.0105 3078456 183.4777 63.7268 1.31054932 438

Live tracking and technical data element details for AZERSPACE 2 (NORAD 43632). AZERSPACE 2 can be tracked NOW for your location showing map with azimuth and elevation plus other details from your city location.

Track the satellite on the map from your city or location and see movement details for azimuth, elevation, latitude, longitude, range, height, and movement on the map or in text.







IsCatalogInMostPopularTable: catalog: 43632, numindb: 21
Update: records affected: 1



GetName: 43632 AZERSPACE 2

Hit Count: updated at: Tue, 20 Nov 2018 11:24:43 GMT